GW4056 Weather Reports


time (UTC)temp
C
wind
direction
speed
KPH
gust
KPH
rain 1hr
cm
rain 24hr
cm
rain mn
cm
humidity
%
barometer
mb
20260503230036 15 252 6.4 24.1 0.00 0.00 0.00 29 1011.9
20260503224520 15 281 3.2 17.7 0.00 0.00 0.00 29 1011.7
20260503223019 15 257 6.4 14.5 0.00 0.00 0.00 30 1011.7
20260503221515 15 272 12.9 30.6 0.00 0.00 0.00 29 1011.8
20260503220012 15 264 8.0 20.9 0.00 0.00 0.00 30 1011.8
20260503214524 15 262 12.9 27.4 0.00 0.00 0.00 29 1011.7
20260503213008 15 333 12.9 22.5 0.00 0.00 0.00 29 1011.6
20260503211505 15 291 11.3 24.1 0.00 0.00 0.00 30 1011.6
20260503210024 15 257 6.4 30.6 0.00 0.00 0.00 31 1011.6
20260503204522 15 232 9.7 24.1 0.00 0.00 0.00 31 1011.6
20260503203022 14 241 14.5 38.6 0.00 0.00 0.00 30 1011.4
20260503201516 14 307 16.1 38.6 0.00 0.00 0.00 32 1011.6
20260503200014 14 280 12.9 22.5 0.00 0.00 0.00 31 1011.7
20260503194510 13 255 14.5 29.0 0.00 0.00 0.00 32 1011.8
20260503193011 13 309 16.1 29.0 0.00 0.00 0.00 33 1012.0
20260503191551 13 271 14.5 30.6 0.00 0.00 0.00 34 1012.1
20260503190031 13 273 8.0 25.7 0.00 0.00 0.00 37 1012.2
20260503184521 12 304 11.3 30.6 0.00 0.00 0.00 36 1012.3
20260503183017 12 232 14.5 32.2 0.00 0.00 0.00 37 1012.6
20260503181515 12 283 11.3 27.4 0.00 0.00 0.00 41 1012.6
20260503180014 11 330 16.1 32.2 0.00 0.00 0.00 39 1012.6
20260503174509 11 252 9.7 30.6 0.00 0.00 0.00 41 1012.7
20260503173027 11 281 8.0 22.5 0.00 0.00 0.00 39 1012.7
20260503171524 11 266 8.0 29.0 0.00 0.00 0.00 42 1012.7
20260503081522 8 350 6.4 17.7 0.00 0.00 0.00 48 1010.4
20260503071505 9 339 4.8 12.9 0.00 0.00 0.00 46 1010.3
20260503054510 10 348 3.2 9.7 0.00 0.00 0.00 46 1010.8
20260503053008 10 342 1.6 14.5 0.00 0.00 0.00 45 1010.7
20260503051504 10 273 3.2 9.7 0.00 0.00 0.00 47 1010.8
20260503050005 10 13 1.6 9.7 0.00 0.00 0.00 47 1011.0
20260503044505 10 302 0.0 4.8 0.00 0.00 0.00 48 1011.3
20260503043003 10 263 1.6 4.8 0.00 0.00 0.00 49 1011.5
20260503041506 10 278 1.6 3.2 0.00 0.00 0.00 49 1011.5
20260503040014 10 289 1.6 4.8 0.00 0.00 0.00 49 1011.3
20260503034507 10 273 1.6 3.2 0.00 0.00 0.00 48 1011.5
20260503033007 11 333 1.6 4.8 0.00 0.00 0.00 48 1011.2
20260503031505 11 288 1.6 4.8 0.00 0.00 0.00 48 1011.0
20260503030004 11 264 0.0 4.8 0.00 0.00 0.00 48 1011.3
20260503024504 11 272 0.0 0.0 0.00 0.00 0.00 50 1011.0
20260503023018 11 295 0.0 0.0 0.00 0.00 0.00 50 1011.2
20260503021519 11 295 0.0 1.6 0.00 0.00 0.00 48 1011.2
20260503020010 11 290 0.0 4.8 0.00 0.00 0.00 46 1011.3
20260503014509 11 283 3.2 6.4 0.00 0.00 0.00 46 1011.4
20260503013011 12 322 1.6 6.4 0.00 0.00 0.00 44 1011.2
20260503011506 12 266 3.2 8.0 0.00 0.00 0.00 44 1011.3
20260503010006 12 278 3.2 6.4 0.00 0.00 0.00 45 1011.1
20260503004533 12 240 1.6 6.4 0.00 0.00 0.00 46 1010.9
20260503003016 12 285 0.0 0.0 0.00 0.00 0.00 46 1010.9
20260503001518 13 274 0.0 4.8 0.00 0.00 0.00 42 1010.7
20260503000016 13 283 0.0 6.4 0.00 0.00 0.00 42 1010.6
20260502234509 13 295 0.0 6.4 0.00 0.00 0.00 41 1010.7
20260502233019 13 271 1.6 4.8 0.00 0.00 0.00 40 1010.8
20260502231505 14 288 0.0 6.4 0.00 0.00 0.00 39 1010.9